Flag for U.S.A. Weather past 2 weeks in Owensboro, Kentucky, U.S.A.

Now
79 °F

Scattered clouds.


Feels Like: 80 °F
Forecast: 58 / 81 °F
Wind: 5 mph from West

Location: Owensboro / Daviess

Current Time: Jul 30, 2014 at 5:05:38 PM

Latest Report: Jul 30, 2014 at 3:56 PM


Visibility: 10 mi

Pressure: 30.06 "Hg

Humidity: 47%

Dew point: 57 °F

Location of OwensboroLocation

Historic Weather in Owensboro — Graph

°F

Owensboro temperature yesterday

Maximum temperature yesterday: 78 °F (at 2:56 PM)
Minimum temperature yesterday: 53 °F (at 4:56 AM)
Average temperature yesterday: 67 °F

Past Weeks' High & Low Weather Summary

 TemperatureHumidityPressure
High96 °F (Jul 26, 3:56 PM)100% (Jul 19, 4:56 AM)30.13 "Hg (Jul 19, 4:56 AM)
Low53 °F (Jul 29, 4:56 AM)31% (Jul 17, 2:56 PM)29.79 "Hg (Jul 27, 4:56 PM)
Average72 °F69%30.02 "Hg
* Reported Jul 15 3:56 PM — Jul 30 3:56 PM, Owensboro, Weather by CustomWeather, © 2014

Note: Actual official high and low records may vary slightly from our data, if they occured in-between our weather recording intervals... More about our weather records

Advertising

Owensboro weather history for previous 24 hours

 ConditionsComfort  
Time TempWeatherWind HumidityBarometerVisibility
3:56 PM
Jul 30
79 °FScattered clouds.5 mph47%30.06 "Hg10 mi
2:56 PM82 °FSunny.10 mph42%30.07 "Hg10 mi
1:56 PM82 °FScattered clouds.6 mph40%30.07 "Hg10 mi
12:56 PM80 °FScattered clouds.13 mph45%30.09 "Hg10 mi
11:56 AM80 °FPassing clouds.7 mph47%30.10 "Hg10 mi
10:56 AM76 °FSunny.5 mph56%30.11 "Hg10 mi
9:56 AM73 °FSunny.3 mph66%30.11 "Hg9 mi
8:56 AM69 °FSunny.No wind71%30.10 "Hg10 mi
7:56 AM64 °FSunny.No wind81%30.11 "Hg10 mi
6:56 AM59 °FSunny.No wind92%30.09 "Hg10 mi
5:56 AM56 °FClear.No wind93%30.09 "Hg10 mi
4:56 AM57 °FClear.No wind93%30.08 "Hg10 mi
3:56 AM58 °FClear.No wind93%30.07 "Hg10 mi
2:56 AM58 °FClear.No wind93%30.08 "Hg10 mi
1:56 AM59 °FClear.No wind92%30.08 "Hg10 mi
12:56 AM60 °FClear.No wind90%30.08 "Hg10 mi
11:56 PM
Jul 29
61 °FClear.No wind86%30.08 "Hg10 mi
10:56 PM62 °FClear.No wind83%30.08 "Hg10 mi
9:56 PM66 °FClear.No wind76%30.07 "Hg10 mi
8:56 PM67 °FSunny.No wind73%30.07 "Hg10 mi
7:56 PM72 °FSunny.3 mph59%30.06 "Hg10 mi
6:56 PM75 °FSunny.6 mph52%30.06 "Hg10 mi
5:56 PM77 °FPassing clouds.12 mph46%30.07 "Hg10 mi
Weather by CustomWeather, © 2014

See weather overviewHow to use our weather pages